Gold Country Challenge - Toss 12 ~ 21 Miles

Station: Wentworth 5000 ELEV - T Race

Distance: 20.76 Miles    

Release: 23-Sep-2022 07:30

Weather Release: Clear    Arrival: Clear/Mild

Wind at Release: Light E     Wind at Arrival:

Temp at Release: 60°    Temp at Arrival: °

Lofts: 79

Birds: 275

Clocked: 272

Birds left well, nice conditions at release. Haze to North but nice on path home
Drops Pos Breeder Pigeon Name Color Sex Ent Arrival Speed To Win Elg Pd
1 Denis Eastwood - CA 39918-AU22-JEDD BB H 1 08:32:23.50 585.617 00:00:00 Yes
2 Silicon Valley Syndicate - CA 22123-AU22-SVS BBSP H 1 08:32:24.90 585.398 00:00:01 Yes
3 T M Lofts - CA 2806-AU22-FOYS Marites BC H 1 08:32:34.70 583.870 00:00:11 Yes
4 Sugaronni Loft - CA 19724-AU22-JEDD BC H 1 08:32:41.10 582.876 00:00:18 Yes
5 Oddiebeng Loft - CA 19802-AU22-FOYS BB H 1 08:32:45.10 582.257 00:00:22 Yes
6 Racing Pigeon Mall - WA 0262-AU22-RPM DC H 1 08:32:46.00 582.118 00:00:23 Yes
7 Cloux Loft - CO 0018-AU22-CLOU BC H 1 08:32:46.40 582.056 00:00:23 Yes
8 Blue Sierra - NE 0107-AU22-SR BB H 1 08:32:57.30 580.376 00:00:34 Yes
9 Goshentown Lofts - TN 11301-AU22-NASH BB H 1 08:33:02.90 579.517 00:00:39 Yes
10 Dan & Greg Coury - AZ 2031-AU22-PEGA BC C 1 08:33:04.60 579.257 00:00:41 Yes
11 Griffin Loft - ID 22200-AU22-RMR BC H 1 08:33:05.40 579.135 00:00:42 Yes
12 Funny Farm Loft - CA 6059-AU22-ARC 4428/2850 DC H 1 08:33:06.10 579.027 00:00:43 Yes
13 T R P Loft - CA 20908-AU22-MAN First Pick BBPD H 1 08:33:07.60 578.798 00:00:44 Yes
14 Denis Eastwood - CA 39902-AU22-JEDD BB H 2 08:33:08.10 578.722 00:00:45 Yes
14 Silicon Valley Syndicate - CA 22119-AU22-SVS DC H 2 08:33:08.10 578.722 00:00:45 Yes
16 A P C Loft - TX 22329-AU22-APC BBSP H 1 08:33:08.40 578.676 00:00:45 Yes
17 Kern Flyers - CA 0008-AU22-BAK Inj. but ok now BB H 1 08:33:09.10 578.569 00:00:46 Yes
18 Sierraminis - CA 0106-AU22-SR BBWF H 1 08:33:10.40 578.371 00:00:47 Yes
19 Laszlo Zugor - CA 0235-AU22-RBPC BC H 1 08:33:11.10 578.264 00:00:48 Yes
20 Denis Eastwood - CA 39908-AU22-JEDD BB H 3 08:33:11.40 578.218 00:00:48 Yes
21 Jim Lauritzen - CA 0608-AU22-EAV BC H 1 08:33:12.40 578.066 00:00:49 Yes
22 Jacks Loft - NV 19530-AU22-JEDD BC H 1 08:33:12.70 578.020 00:00:49 Yes
23 Scm Lofts - CA 19537-AU22-JEDD BB H 1 08:33:13.10 577.959 00:00:50 Yes
24 PNWC - ID 2129-AU22-PNWC “PAIR 3” DCWF H 1 08:33:14.30 577.776 00:00:51 Yes
25 Sugaronni Loft - CA 1009-AU22-FMT BB H 2 08:33:15.00 577.670 00:00:51 Yes
26 Endo/Wong/Kojiro - HI 0002-AU22-PONO BB H 1 08:33:16.50 577.441 00:00:53 Yes
27 House Of Paine - CA 0700-AU22-HOP GSF1897xGSF179 BB H 1 08:33:17.00 577.365 00:00:54 Yes
28 Sierra Ranch - CA 0120-AU22-SR Jonny be good🏆 BB H 1 08:33:18.60 577.122 00:00:55 Yes
29 Genesis Syndicate Loft - AZ 0663-AU22-GENS DCWF H 1 08:33:20.60 576.818 00:00:57 Yes
30 Kereru Whare - CA 0001-AU22-BISH 🐦 RCPD H 1 08:33:20.90 576.773 00:00:57 Yes
31 Skychargers - CA 8818-AU22-JEDD BBWF H 1 08:33:23.40 576.394 00:01:00 Yes
32 D B Loft - CA 0501-AU22-JEDD Levi BC H 1 08:33:25.40 576.091 00:01:02 Yes
33 Kern Flyers - CA 0012-AU22-BAK PIED H 2 08:33:25.90 576.015 00:01:02 Yes
34 Marengo Creek Farms - GA 4111-AU22-MCF BB H 1 08:33:27.50 575.773 00:01:04 Yes
35 Kereru Whare - CA 0036-AU22-BISH 🐦 BB H 2 08:33:28.20 575.667 00:01:05 Yes
36 R & D Racing 2 - ON 6846-CU22-CRPU SIL H 1 08:33:29.20 575.516 00:01:06 Yes
37 Choymagno Loft - CA 0469-AU22-CNA BCWF H 1 08:33:29.50 575.471 00:01:06 Yes
38 Scm Lofts - CA 19538-AU22-JEDD BCSP H 2 08:33:31.50 575.169 00:01:08 Yes
39 Golden Knights Loft - CA 17452-AU22-ARPU Ariana BC H 1 08:33:33.00 574.943 00:01:09 Yes
40 Skylinerpl.Com - UT 0323-AU22-UVI 3152/49911 SMOK H 1 08:33:33.30 574.897 00:01:10 Yes
41 Mark Skoien - NV 30430-AU22-JEDD BBPD H 1 08:33:33.70 574.837 00:01:10 Yes
42 Denis Eastwood - CA 39914-AU22-JEDD BBPD H 4 08:33:34.40 574.732 00:01:11 Yes
42 RCManaois Family Loft - NV 0008-AU22-RCML BBWF H 1 08:33:34.40 574.732 00:01:11 Yes
44 Gomez Loft - CA 6197-AU22-CHP BB H 1 08:33:36.50 574.415 00:01:13 Yes
45 Genesis Syndicate Loft - AZ 0777-AU22-GEN BB H 2 08:33:37.20 574.310 00:01:14 Yes
46 Ryan Austin - CA 39921-AU22-JEDD BBPD H 1 08:33:37.30 574.295 00:01:14 Yes
47 Racing Pigeon Mall - WA 0218-AU22-RPM BLK H 2 08:33:37.80 574.220 00:01:14 Yes
48 B & N Lofts - CA 30401-AU22-JEDD Kelsey BC H 1 08:33:38.50 574.114 00:01:15 Yes
49 Genesis Syndicate Loft - AZ 0646-AU22-GENS SLPD H 3 08:33:39.00 574.039 00:01:16 Yes
50 Sierra Ranch - CA 0142-AU22-SR Ice Cream 🍦 BB H 2 08:33:39.60 573.949 00:01:16 Yes
51 Hawkbait Lofts - CA 0014-AU22-POP BBWF H 1 08:33:40.70 573.784 00:01:17 Yes
52 Sierra Ranch - CA 0104-AU22-SR Sky Skater⚡ BB H 3 08:33:41.30 573.694 00:01:18 Yes
53 Laszlo Zugor - CA 2138-AU22-CDR BB H 2 08:33:41.70 573.634 00:01:18 Yes
54 A P C Loft - TX 22039-AU22-APC BB H 2 08:33:43.70 573.334 00:01:20 Yes
55 Stark Loft - CA 71222-AU22-ARPU MLY H 1 08:33:44.70 573.184 00:01:21 Yes
56 Kereru Whare - CA 0051-AU22-BISH 🐦 MLY H 3 08:33:45.10 573.124 00:01:22 Yes
57 Denis Eastwood - CA 39903-AU22-JEDD BB H 5 08:33:45.40 573.079 00:01:22 Yes
58 Sparks Trio Syn - NV 2305-AU22-RENO Kathy BC H 1 08:33:46.10 572.974 00:01:23 Yes
59 Blue Sierra - NE 0018-AU22-GGRO DC H 2 08:33:47.10 572.824 00:01:24 Yes
60 Marengo Creek Farms - GA 4151-AU22-MCF BC H 2 08:33:48.10 572.675 00:01:25 Yes
61 John & Omelio - NM 22165-AU22-NMRP BB H 1 08:33:49.20 572.510 00:01:26 Yes
62 Endo/Wong/Kojiro - HI 0007-AU22-PONO BB H 2 08:33:49.30 572.495 00:01:26 Yes
63 RCManaois Family Loft - NV 0031-AU22-RCML BCSP H 2 08:33:49.80 572.420 00:01:26 Yes
64 Guinto-Hedderson - CA 2600-AU22-FSC 272x262 BB H 1 08:33:51.70 572.137 00:01:28 Yes
65 Big Game Loft - CA 0728-AU22-EAV BBWF H 1 08:33:52.50 572.017 00:01:29 Yes
66 Golden Knights Loft - CA 17451-AU22-ARPU Isabela BBSP H 2 08:33:53.00 571.943 00:01:29 Yes
67 Ryan Austin - CA 39920-AU22-JEDD BBPD H 2 08:33:53.80 571.823 00:01:30 Yes
68 Christopher Loft - UT 0156-AU22-GS BCSP H 1 08:33:53.90 571.808 00:01:30 Yes
69 A P C Loft - TX 22042-AU22-APC BB H 3 08:33:54.60 571.704 00:01:31 Yes
70 Golden Knights Loft - CA 17445-AU22-ARPU Abigail BB H 3 08:33:54.90 571.659 00:01:31 Yes
71 Skychargers - CA 8828-AU22-JEDD BC H 2 08:33:55.30 571.600 00:01:32 Yes
72 Kereru Whare - CA 0069-AU22-BISH 🐦 MLY H 4 08:33:57.30 571.302 00:01:34 Yes
73 Sierraminis - CA 1063-AU22-SR DC H 2 08:33:57.70 571.242 00:01:34 Yes
74 RCManaois Family Loft - NV 0017-AU22-RCML BBT H 3 08:33:58.30 571.153 00:01:35 Yes
74 Aimhigh Loft - CA 0086-AU22-CHIM Graceful Family BB H 1 08:33:58.30 571.153 00:01:35 Yes
76 Skychargers - CA 0165-AU22-CORO MYPD H 3 08:34:00.30 570.855 00:01:37 Yes
77 Ryan Austin - CA 39889-AU22-JEDD BBSP H 3 08:34:02.20 570.573 00:01:39 Yes
78 Blue Sierra - NE 1005-AU22-SR BCWF H 3 08:34:04.30 570.261 00:01:41 Yes
79 Rob Wilson - CA 0342-AU22-AVC RCPD H 1 08:34:05.40 570.098 00:01:42 Yes
80 Kereru Whare - CA 0049-AU22-BISH 🐦 BB H 5 08:34:06.20 569.980 00:01:43 Yes
81 Jim Cain - CA 1575-AU22-FSC BB H 1 08:34:06.60 569.920 00:01:43 Yes
82 Genesis Syndicate Loft - AZ 0647-AU22-GENS BB H 4 08:34:06.90 569.876 00:01:43 Yes
83 Endo/Wong/Kojiro - HI 0003-AU22-PONO BB H 3 08:34:07.40 569.802 00:01:44 Yes
84 John V Partridge - CA 1004-AU22-PASO My Brothers 4747-400-1867 BC H 1 08:34:08.60 569.624 00:01:45 Yes
85 Kern Flyers - CA 2001-AU22-JEDD BB H 3 08:34:09.40 569.506 00:01:46 Yes
86 Pigeon Party - CA 0080-AU22-BSHP 🎃 BB H 1 08:34:10.30 569.373 00:01:47 Yes
87 BIRDHIGH RANCH - CA 8819-AU22-JEDD BB H 1 08:34:10.80 569.299 00:01:47 Yes
87 Riedel's L T L - WI 0114-AU22-RIED BB H 1 08:34:10.80 569.299 00:01:47 Yes
89 Bluesky Loft - ON 1628-CU22-YRI BB H 1 08:34:11.40 569.210 00:01:48 Yes
90 Laszlo Zugor - CA 2139-AU22-CDR MLY H 3 08:34:11.70 569.166 00:01:48 Yes
91 Sugaronni Loft - CA 19725-AU22-JEDD DC H 3 08:34:12.20 569.092 00:01:49 Yes
92 Denis Eastwood - CA 39904-AU22-JEDD BB H 6 08:34:12.70 569.018 00:01:49 Yes
93 Endo/Wong/Kojiro - HI 0008-AU22-PONO BB H 4 08:34:13.00 568.974 00:01:50 Yes
94 Sugaronni Loft - CA 1049-AU22-FMT BB H 4 08:34:13.50 568.900 00:01:50 Yes
95 Pigeon Party - CA 0079-AU22-BSHP 🎃 BB H 2 08:34:13.80 568.856 00:01:50 Yes
96 Jay Page - CA 4022-AU22-FSC BB H 1 08:34:14.20 568.797 00:01:51 Yes
97 D B Loft - CA 0514-AU22-JEDD WINTER RAIN BB H 2 08:34:14.80 568.708 00:01:51 Yes
98 Portland Loft - OR 4102-AU22-PNW BB H 1 08:34:15.90 568.546 00:01:52 Yes
99 Portland Loft - OR 4196-AU22-PNW BB H 2 08:34:16.50 568.457 00:01:53 Yes
100 Watson & Williams - NV 18314-AU22-JEDD BBSP H 1 08:34:16.80 568.413 00:01:53 Yes

There are 272 bird records

Note: These Race Results are unofficial and subject to change until verified by the Race Committee and declared final.